Location: Boissi�res
(45.2500°N, 2.3667°E)
Time: 16:47:14
(UTC+00:00)

Cosmos 2360 Rocket - Pass Details

Date: 03 March 2021
Orbit: 833 x 846 km, 71.0° (Epoch: 18 April)

Event Time Altitude Azimuth Distance (km) Brightness Sun altitude
Rises 18:36:09 0° 189° (S) 3,372 5.4 -10.6°
Reaches altitude 10° 18:38:37 10° 185° (S) 2,445 4.7 -11.0°
Maximum altitude 18:44:03 53° 109° (ESE) 1,024 2.3 -12.0°
Drops below altitude 10° 18:49:33 10° 34° (NE) 2,470 4.3 -12.9°
Sets 18:52:03 0° 30° (NNE) 3,411 5.1 -13.4°
